TimeCST,TemperatureF,Dew PointF,Humidity,Sea Level PressureIn,VisibilityMPH,Wind Direction,Wind SpeedMPH,Gust SpeedMPH,PrecipitationIn,Events,Conditions,WindDirDegrees,DateUTC
12:53 AM,41.0,39.9,96,30.13,10.0,Calm,Calm,-,N/A,,Clear,0,2013-02-15 06:53:00
1:53 AM,39.9,39.0,97,30.15,10.0,Calm,Calm,-,N/A,,Clear,0,2013-02-15 07:53:00
2:53 AM,39.9,37.9,93,30.15,10.0,Calm,Calm,-,N/A,,Clear,0,2013-02-15 08:53:00
3:53 AM,39.0,37.0,93,30.16,10.0,Calm,Calm,-,N/A,,Clear,0,2013-02-15 09:53:00
4:53 AM,39.0,37.0,93,30.16,10.0,Calm,Calm,-,N/A,,Clear,0,2013-02-15 10:53:00
5:53 AM,37.0,36.0,96,30.17,10.0,Calm,Calm,-,N/A,,Clear,0,2013-02-15 11:53:00
6:12 AM,39.2,37.4,93,30.17,1.8,NNW,5.8,-,N/A,,Partly Cloudy,330,2013-02-15 12:12:00
6:21 AM,39.2,37.4,93,30.17,4.0,Calm,Calm,-,N/A,,Clear,0,2013-02-15 12:21:00
6:53 AM,37.0,36.0,96,30.19,2.0,Calm,Calm,-,N/A,,Clear,0,2013-02-15 12:53:00
7:01 AM,35.6,35.6,100,30.17,0.8,South,3.5,-,N/A,,Clear,170,2013-02-15 13:01:00
7:07 AM,37.4,35.6,93,30.17,2.5,SSE,3.5,-,N/A,,Clear,160,2013-02-15 13:07:00
7:14 AM,37.4,37.4,100,30.17,6.0,Calm,Calm,-,N/A,,Clear,0,2013-02-15 13:14:00
7:53 AM,44.1,43.0,96,30.21,10.0,Calm,Calm,-,N/A,,Clear,0,2013-02-15 13:53:00
8:53 AM,50.0,41.0,71,30.23,10.0,North,10.4,-,N/A,,Clear,360,2013-02-15 14:53:00
9:53 AM,54.0,37.9,55,30.23,10.0,NNE,11.5,-,N/A,,Clear,20,2013-02-15 15:53:00
10:53 AM,57.9,35.1,42,30.23,10.0,NNE,16.1,21.9,N/A,,Clear,30,2013-02-15 16:53:00
11:53 AM,60.1,35.1,39,30.22,10.0,North,9.2,-,N/A,,Clear,360,2013-02-15 17:53:00
12:53 PM,61.0,36.0,39,30.20,10.0,North,10.4,18.4,N/A,,Partly Cloudy,360,2013-02-15 18:53:00
1:53 PM,62.1,37.0,39,30.18,10.0,Variable,6.9,-,N/A,,Scattered Clouds,0,2013-02-15 19:53:00
2:53 PM,59.0,37.9,46,30.18,10.0,NW,13.8,17.3,N/A,,Mostly Cloudy,320,2013-02-15 20:53:00
3:53 PM,55.9,39.0,53,30.19,10.0,NNW,11.5,-,N/A,,Overcast,340,2013-02-15 21:53:00
4:53 PM,55.9,37.9,51,30.19,10.0,NNW,10.4,17.3,N/A,,Mostly Cloudy,340,2013-02-15 22:53:00
6:53 PM,52.0,34.0,50,30.21,10.0,NNW,5.8,-,N/A,,Overcast,340,2013-02-16 00:53:00
7:53 PM,51.1,36.0,56,30.22,10.0,NNW,3.5,-,N/A,,Overcast,340,2013-02-16 01:53:00
8:53 PM,51.1,35.1,54,30.23,10.0,NNW,5.8,-,N/A,,Overcast,340,2013-02-16 02:53:00
9:53 PM,50.0,33.1,52,30.24,10.0,NNW,4.6,-,N/A,,Overcast,340,2013-02-16 03:53:00
10:53 PM,46.9,30.0,52,30.25,10.0,North,9.2,-,N/A,,Clear,350,2013-02-16 04:53:00
11:53 PM,45.0,30.0,56,30.26,10.0,NNW,9.2,-,N/A,,Clear,340,2013-02-16 05:53:00